Weather Roundup
Issued by NWS Springfield, MO

Home | Current Version | Previous Version | Text Only | Print | Product List | Glossary On
Versions: 1 2 3 4 5 6 7 8 9 10 11 12 13 14 15 16 17 18 19 20 21 22 23 24 25 26 27 28 29 30 31 32 33 34 35 36 37 38 39 40 41 42 43 44 45 46 47 48 49 50
000
NZUS99 KSGF 132057
HRRSGF

HOURLY WEATHER
NATIONAL WEATHER SERVICE SPRINGFIELD MO
300 PM CST WED DEC 13 2017

......SGF CWA......

CITY           SKY/WX    TMP DP  RH WIND       PRES   REMARKS
SPRINGFIELD    SUNNY     58  26  29 W14G22    29.76S
JOPLIN         SUNNY     61  28  28 W13       29.80S
WEST PLAINS    SUNNY     60  23  24 W13G24    29.72R
ROLLA          SUNNY     58  29  33 W17G29    29.66S
BRANSON        MOSUNNY   57  25  28 W17G23    29.77F

......SURROUNDING SGF CWA......

CITY           SKY/WX    TMP DP  RH WIND       PRES   REMARKS
CHANUTE        SUNNY     64  26  23 NW12G25   29.82R
PARSONS        SUNNY     64  25  22 NW15G25   29.83R
COFFEYVILLE    SUNNY     65  26  23 NW17G23   29.83R
EMPORIA        SUNNY     60  24  25 NW23G32   29.82R
HARRISON AR    SUNNY     58  25  28 NW13G20   29.78R

......KANSAS AND MISSOURI......

CITY           SKY/WX    TMP DP  RH WIND       PRES   REMARKS
KANSAS CTY INT SUNNY     58  27  30 NW16G26   29.76R
SEDALIA        SUNNY     60  32  34 NW20G25   29.72R
ST JOSEPH      SUNNY     56  30  37 NW24G35   29.76R
ST LOUIS       MOSUNNY   57  30  35 W26G33    29.57R
WICHITA        MOSUNNY   65  22  19 N18G26    29.86S
TOPEKA         SUNNY     59  27  29 NW23G30   29.79R
OLATHE         SUNNY     57  27  31 NW25G35   29.77R

......TENNESSEE......

CITY           SKY/WX    TMP DP  RH WIND       PRES   REMARKS
MEMPHIS        NOT AVBL
NASHVILLE      MOSUNNY   51  16  24 SW16G26   29.71F

......ARKANSAS.......

CITY           SKY/WX    TMP DP  RH WIND       PRES   REMARKS
FAYETTEVILLE   SUNNY     57  26  30 W10       29.83F
FT SMITH       SUNNY     63  24  22 W15       29.84R
LITTLE ROCK    MOSUNNY   63  24  22 SW14G23   29.80F

......OKLAHOMA.......

CITY           SKY/WX    TMP DP  RH WIND       PRES   REMARKS
TULSA          PTSUNNY   66  24  20 W12       29.85F
PONCA CITY     SUNNY     64  23  21 N10       29.87F
MCALESTER      PTSUNNY   67  23  19 NW6       29.87F
OKLAHOMA CITY  MOSUNNY   65  22  19 N12       29.90F

......IOWA............

CITY           SKY/WX    TMP DP  RH WIND       PRES   REMARKS
DES MOINES     NOT AVBL
QUAD CITIES    CLOUDY    39  29  67 NW28G43   29.48R WCI  28

......ILLINOIS........

CITY           SKY/WX    TMP DP  RH WIND       PRES   REMARKS
QUINCY         NOT AVBL
CHICAGO        FLURRIES  35  30  82 W15G25    29.28R WCI  25




USA.gov is the U.S. government's official web portal to all federal, state and local government web resources and services.